[[{"header":{"parameterUnit":"m.s-1","parameterCategory":1,"la1":30.2991,"la2":30.254,"lo1":-89.0895,"lo2":-89.0444,"dy":0.0017,"dx":0.0017,"nx":28,"ny":28,"refTime":"2023-11-11T09:00:00:Z","depth":0,"parameterNumber":2,"parameterNumberName":"U-component_of_WINDS"},"data":[0,0,0,0,0,0,0,0,0,0,0,0,0,0,0,0,0,0,0,0,0,0,0,0,0,0,0,0,0,0,0,0,0,0,0,0,0,0,0,0,0,0,0,0,0,0,0,0,0,0,0,0,0,0,0,0,0,0,-1.4756,-1.4756,0,-1.4779,-1.478,-1.478,-1.4744,-1.4743,-1.4742,-1.4741,-1.4764,-1.4766,-1.4767,0,0,0,0,0,0,0,0,0,0,0,0,0,-1.4681,-1.4683,-1.4756,-1.4757,-1.4757,-1.4779,-1.478,-1.478,-1.4745,-1.4743,-1.4742,-1.474,-1.4763,-1.4765,-1.4768,0,0,0,0,0,0,0,0,0,0,0,0,0,-1.471,-1.4683,-1.4756,-1.4742,-1.4741,-1.4779,-1.478,-1.478,-1.4745,-1.4743,-1.4741,-1.4739,-1.4763,-1.4765,-1.4768,-1.4821,0,0,-1.4776,-1.4777,0,0,0,0,0,0,0,0,-1.4708,-1.4713,-1.4744,-1.4743,-1.4742,-1.4757,-1.4762,-1.4794,-1.4745,-1.4743,-1.4741,-1.4739,-1.4763,-1.4766,-1.4774,-1.4822,-1.4823,-1.4776,-1.4778,-1.4779,-1.478,0,0,0,0,0,0,0,-1.4706,-1.4711,-1.4765,-1.4744,-1.4743,-1.4734,-1.4736,-1.4767,-1.4763,-1.4743,-1.4741,-1.4744,-1.4762,-1.4772,-1.4774,-1.4824,-1.4776,-1.4779,-1.478,-1.4781,-1.4917,-1.4919,0,0,0,0,0,0,-1.4706,-1.471,-1.4765,-1.4766,-1.472,-1.4737,-1.4739,-1.4754,-1.4763,-1.4762,-1.4746,-1.4742,-1.4768,-1.4771,-1.4775,-1.4839,-1.4779,-1.4781,-1.4783,-1.4915,-1.4918,-1.492,0,0,0,0,0,0,-1.4705,-1.4711,-1.4764,-1.4737,-1.4743,-1.474,-1.4757,-1.4755,-1.4765,-1.4765,-1.4764,-1.4756,-1.4767,-1.4771,-1.481,-1.4839,-1.4783,-1.4785,-1.4913,-1.4916,-1.4919,-1.4966,0,0,0,0,0,0,-1.4703,-1.4711,-1.4731,-1.4738,-1.4745,-1.4799,-1.4759,-1.4757,-1.4769,-1.4765,-1.4774,-1.4774,-1.4766,-1.4806,-1.4813,-1.4842,-1.4787,-1.491,-1.4914,-1.4918,-1.4962,-1.497,-1.4977,0,0,0,0,0,-1.47,-1.4744,-1.4733,-1.4739,-1.477,-1.4801,-1.4804,-1.4794,-1.4772,-1.4792,-1.4792,-1.4773,-1.4834,-1.4811,-1.4818,-1.4848,-1.4908,-1.4913,-1.4917,-1.4958,-1.4969,-1.4977,0,0,0,0,0,0,-1.474,-1.4744,-1.4732,-1.4779,-1.479,-1.4794,-1.482,-1.4805,-1.4822,-1.4818,-1.4804,-1.4806,-1.4848,-1.4851,-1.4825,-1.49,-1.4868,-1.4874,-1.4896,-1.4906,-1.4914,-1.4913,-1.4789,0,0,0,0,0,-1.4755,-1.4779,-1.4781,-1.4822,-1.4828,-1.4823,-1.4836,-1.4827,-1.4838,-1.4842,-1.4845,-1.4855,-1.4877,-1.4891,-1.4911,-1.4962,-1.4963,-1.4986,-1.4993,-1.5,-1.5006,-1.5033,-1.5043,-1.4935,-1.4935,-1.4935,0,0,-1.4785,-1.479,-1.4806,-1.4831,-1.4838,-1.4863,-1.4827,-1.4856,-1.4875,-1.4846,-1.4883,-1.4886,-1.4897,-1.4942,-1.4962,-1.4946,-1.5036,-1.5006,-1.5011,-1.5013,-1.5039,-1.5049,-1.5058,-1.4938,-1.4937,-1.4937,0,0,-1.4853,-1.4859,-1.4894,-1.4902,-1.4913,-1.491,-1.4918,-1.4925,-1.4926,-1.4963,-1.4942,-1.4964,-1.5001,-1.501,-1.502,-1.509,-1.5074,-1.5097,-1.5138,-1.5165,-1.5174,-1.5181,-1.5207,-1.5217,-1.5103,-1.5103,-1.5103,0,-1.4889,-1.4927,-1.4914,-1.4944,-1.4956,-1.4931,-1.4967,-1.4975,-1.4992,-1.5001,-1.4982,-1.5029,-1.5035,-1.5082,-1.5099,-1.5107,-1.5117,-1.5097,-1.5173,-1.5181,-1.5188,-1.5212,-1.5222,-1.5106,-1.5105,-1.5105,-1.5105,0,-1.497,-1.4997,-1.5024,-1.5042,-1.5056,-1.5089,-1.5082,-1.5097,-1.5087,-1.5085,-1.5124,-1.5129,-1.515,-1.516,-1.515,-1.5206,-1.5196,-1.5176,-1.5143,-1.5201,-1.5224,-1.5234,-1.511,-1.5109,-1.5108,-1.5107,0,0,-1.5066,-1.5076,-1.5086,-1.5094,-1.5104,-1.5125,-1.5156,-1.5176,-1.5191,-1.5203,-1.5229,-1.5261,-1.5243,-1.5254,-1.5244,-1.5268,-1.5324,-1.5245,-1.5245,-1.526,-1.5387,-1.5403,-1.5414,-1.5313,-1.5315,-1.5316,-1.5386,0,-1.5134,-1.5189,-1.5179,-1.5232,-1.5257,-1.5233,-1.5261,-1.527,-1.5269,-1.529,-1.5288,-1.5311,-1.5285,-1.5291,-1.5313,-1.5313,-1.535,-1.5307,-1.5338,-1.5339,-1.5337,-1.5426,-1.5443,-1.5509,-1.5395,-1.5397,-1.5398,0,-1.5222,-1.5238,-1.5294,-1.5301,-1.5311,-1.5336,-1.5354,-1.5373,-1.5383,-1.5381,-1.5393,-1.5379,-1.541,-1.5377,-1.542,-1.5391,-1.5402,-1.5404,-1.5406,-1.541,-1.5373,-1.5433,-1.553,-1.554,-1.5412,-1.541,-1.5409,0,-1.5287,-1.5322,-1.5361,-1.5368,-1.5376,-1.5395,-1.5399,-1.5407,-1.542,-1.5435,-1.5444,-1.5462,-1.5473,-1.5488,-1.5479,-1.5455,-1.5524,-1.549,-1.5523,-1.5524,-1.554,-1.5539,-1.5641,-1.5546,-1.5545,-1.5545,-1.5545,0,-1.5365,-1.5401,-1.539,-1.5414,-1.5453,-1.544,-1.5479,-1.5481,-1.5488,-1.5512,-1.5492,-1.5514,-1.5501,-1.5522,-1.5516,-1.5553,-1.5557,-1.5557,-1.5555,-1.5559,-1.5559,-1.5567,-1.5563,-1.5548,-1.5547,-1.5547,-1.5546,0,-1.5445,-1.5439,-1.548,-1.5484,-1.5486,-1.5515,-1.5519,-1.5541,-1.5538,-1.5568,-1.5574,-1.557,-1.5594,-1.5587,-1.5613,-1.5608,-1.5656,-1.5647,-1.5653,-1.5651,-1.5685,-1.5683,-1.5797,-1.5812,-1.5706,-1.5707,-1.5707,0,-1.5496,-1.5523,-1.5531,-1.5545,-1.5551,-1.5575,-1.5588,-1.5576,-1.559,-1.5604,-1.5624,-1.5647,-1.5664,-1.5703,-1.5703,-1.5722,-1.5715,-1.5753,-1.5718,-1.5721,-1.5717,-1.5716,-1.5719,-1.5761,-1.5762,-1.5763,-1.5764,0,-1.5588,-1.5584,-1.5603,-1.5623,-1.5639,-1.5653,-1.5666,-1.5678,-1.5668,-1.5685,-1.5709,-1.5723,-1.5749,-1.5772,-1.579,-1.5794,-1.5778,-1.5775,-1.5784,-1.579,-1.5792,-1.5792,-1.5673,-1.5773,-1.5772,-1.5771,-1.5771,-1.577,-1.5656,-1.5679,-1.5688,-1.5711,-1.5719,-1.5731,-1.5752,-1.5752,-1.5772,-1.5793,-1.5784,-1.5813,-1.5822,-1.5844,-1.585,-1.5872,-1.5857,-1.587,-1.5874,-1.5877,-1.5882,-1.5788,-1.5875,-1.5875,-1.5875,-1.5874,-1.5874,0,-1.5747,-1.5752,-1.5773,-1.5791,-1.5809,-1.5792,-1.5804,-1.5821,-1.5846,-1.5856,-1.5873,-1.5901,-1.5923,-1.5924,-1.5944,-1.5961,-1.5954,-1.5967,-1.5966,-1.5968,-1.5894,-1.5885,-1.5972,-1.5972,-1.5972,-1.5972,-1.5972,-1.5972,-1.5797,-1.5835,-1.5832,-1.5874,-1.5878,-1.5906,-1.5915,-1.5926,-1.5934,-1.5966,-1.5984,-1.5984,-1.599,-1.6011,-1.603,-1.6029,-1.6038,-1.6054,-1.6051,-1.5982,-1.5973,-1.5963,-1.5955,-1.6056,-1.6056,-1.6123,-1.6123,-1.6124]},{"header":{"parameterUnit":"m.s-1","parameterCategory":1,"la1":30.2991,"la2":30.254,"lo1":-89.0895,"lo2":-89.0444,"dy":0.0017,"dx":0.0017,"nx":28,"ny":28,"refTime":"2023-11-11T09:00:00:Z","depth":0,"parameterNumber":3,"parameterNumberName":"V-component_of_WINDS"},"data":[0,0,0,0,0,0,0,0,0,0,0,0,0,0,0,0,0,0,0,0,0,0,0,0,0,0,0,0,0,0,0,0,0,0,0,0,0,0,0,0,0,0,0,0,0,0,0,0,0,0,0,0,0,0,0,0,0,0,-3.8381,-3.8381,0,-3.8428,-3.8429,-3.843,-3.84,-3.8398,-3.8397,-3.8395,-3.844,-3.8442,-3.8445,0,0,0,0,0,0,0,0,0,0,0,0,0,-3.8259,-3.8261,-3.8381,-3.8381,-3.8382,-3.8428,-3.8429,-3.843,-3.84,-3.8398,-3.8396,-3.8395,-3.8439,-3.8442,-3.8445,0,0,0,0,0,0,0,0,0,0,0,0,0,-3.831,-3.8262,-3.8381,-3.8373,-3.8373,-3.8428,-3.8429,-3.843,-3.84,-3.8398,-3.8396,-3.8394,-3.8438,-3.8442,-3.8445,-3.851,0,0,-3.8457,-3.8458,0,0,0,0,0,0,0,0,-3.8307,-3.8314,-3.8373,-3.8373,-3.8373,-3.8406,-3.8402,-3.8457,-3.8401,-3.839,-3.8395,-3.8393,-3.843,-3.8434,-3.8448,-3.8512,-3.8514,-3.8457,-3.8459,-3.8461,-3.8462,0,0,0,0,0,0,0,-3.8303,-3.8312,-3.8399,-3.8374,-3.8374,-3.8365,-3.837,-3.8412,-3.8421,-3.839,-3.8388,-3.8395,-3.843,-3.8444,-3.8448,-3.8515,-3.8457,-3.846,-3.8463,-3.8464,-3.8634,-3.8636,0,0,0,0,0,0,-3.8301,-3.8309,-3.8398,-3.8401,-3.8334,-3.8369,-3.8375,-3.8398,-3.842,-3.8422,-3.8396,-3.8393,-3.8439,-3.8444,-3.845,-3.8527,-3.8461,-3.8464,-3.8467,-3.8632,-3.8635,-3.8637,0,0,0,0,0,0,-3.8299,-3.8309,-3.8396,-3.8355,-3.8365,-3.8373,-3.8399,-3.84,-3.8414,-3.8425,-3.8426,-3.841,-3.8437,-3.8445,-3.8496,-3.8528,-3.8466,-3.8469,-3.8629,-3.8633,-3.8636,-3.8682,0,0,0,0,0,0,-3.8295,-3.8309,-3.8334,-3.8355,-3.8367,-3.8443,-3.8401,-3.8402,-3.8421,-3.8417,-3.8438,-3.8439,-3.8436,-3.849,-3.8499,-3.8532,-3.8472,-3.8626,-3.8631,-3.8635,-3.8678,-3.8687,-3.8694,0,0,0,0,0,-3.8291,-3.8345,-3.8336,-3.8347,-3.84,-3.8444,-3.8451,-3.8448,-3.8424,-3.8449,-3.8456,-3.8439,-3.8523,-3.8496,-3.8506,-3.854,-3.8624,-3.8629,-3.8634,-3.8674,-3.8685,-3.8694,0,0,0,0,0,0,-3.8326,-3.8347,-3.8338,-3.84,-3.8421,-3.8439,-3.8471,-3.846,-3.8486,-3.8481,-3.8475,-3.848,-3.8533,-3.8541,-3.851,-3.8604,-3.857,-3.8577,-3.8596,-3.8607,-3.8615,-3.8612,-3.8475,0,0,0,0,0,-3.8341,-3.8377,-3.8393,-3.8446,-3.8457,-3.8463,-3.8482,-3.8478,-3.8498,-3.8506,-3.8517,-3.8536,-3.8567,-3.8587,-3.8616,-3.8679,-3.8682,-3.8707,-3.8715,-3.8722,-3.8729,-3.8762,-3.8773,-3.8654,-3.8654,-3.8654,0,0,-3.8372,-3.8388,-3.8411,-3.8454,-3.8469,-3.8505,-3.847,-3.851,-3.8536,-3.8512,-3.8561,-3.8569,-3.859,-3.8647,-3.8673,-3.8656,-3.8762,-3.8729,-3.8734,-3.8737,-3.8768,-3.878,-3.879,-3.8657,-3.8657,-3.8656,0,0,-3.8448,-3.8464,-3.851,-3.8527,-3.8551,-3.8554,-3.8566,-3.8586,-3.8591,-3.864,-3.8623,-3.8653,-3.8707,-3.8722,-3.8737,-3.8818,-3.8803,-3.8828,-3.8871,-3.8904,-3.8913,-3.8921,-3.895,-3.896,-3.8834,-3.8834,-3.8834,0,-3.8483,-3.8538,-3.8535,-3.8576,-3.8595,-3.8576,-3.8622,-3.8638,-3.867,-3.8683,-3.8664,-3.873,-3.8743,-3.8803,-3.8823,-3.8836,-3.8847,-3.8825,-3.8912,-3.892,-3.8928,-3.8955,-3.8966,-3.8837,-3.8837,-3.8836,-3.8836,0,-3.858,-3.8618,-3.8653,-3.8686,-3.8708,-3.8752,-3.8754,-3.8776,-3.877,-3.8775,-3.8825,-3.8839,-3.8871,-3.8885,-3.8878,-3.8944,-3.8933,-3.8913,-3.8879,-3.8942,-3.8968,-3.8978,-3.8841,-3.884,-3.8839,-3.8838,0,0,-3.8679,-3.8711,-3.8723,-3.8738,-3.8763,-3.8792,-3.8834,-3.8866,-3.8886,-3.8908,-3.8942,-3.8988,-3.897,-3.8986,-3.8981,-3.901,-3.9073,-3.8987,-3.8987,-3.9002,-3.9145,-3.916,-3.9172,-3.9063,-3.9065,-3.9066,-3.9144,0,-3.8756,-3.8831,-3.883,-3.8898,-3.8933,-3.8916,-3.8952,-3.8971,-3.8976,-3.9005,-3.9009,-3.9042,-3.9016,-3.9026,-3.9054,-3.906,-3.9101,-3.9054,-3.9093,-3.9095,-3.9089,-3.9186,-3.9201,-3.9274,-3.9153,-3.9155,-3.9156,0,-3.8856,-3.8884,-3.8957,-3.8977,-3.8992,-3.9025,-3.9054,-3.9082,-3.9102,-3.9104,-3.9123,-3.9113,-3.9154,-3.9119,-3.9174,-3.9142,-3.9157,-3.9163,-3.9165,-3.9169,-3.913,-3.9192,-3.9297,-3.9308,-3.9172,-3.9171,-3.917,0,-3.8921,-3.8976,-3.9027,-3.904,-3.9065,-3.9088,-3.91,-3.9118,-3.9137,-3.9162,-3.9174,-3.9203,-3.9219,-3.924,-3.9238,-3.9213,-3.9294,-3.9259,-3.9296,-3.9296,-3.9314,-3.9313,-3.9423,-3.9324,-3.9324,-3.9324,-3.9324,0,-3.9008,-3.9053,-3.9057,-3.9088,-3.9138,-3.9134,-3.9183,-3.9191,-3.9208,-3.9239,-3.9225,-3.9254,-3.925,-3.9279,-3.9277,-3.9323,-3.933,-3.9331,-3.933,-3.9333,-3.9333,-3.9343,-3.9338,-3.9327,-3.9326,-3.9326,-3.9325,0,-3.9089,-3.9093,-3.9147,-3.9167,-3.9173,-3.9208,-3.9224,-3.9253,-3.9257,-3.9297,-3.9306,-3.9311,-3.9345,-3.9345,-3.9382,-3.9381,-3.9437,-3.943,-3.9431,-3.943,-3.9467,-3.9463,-3.9587,-3.9603,-3.9494,-3.9495,-3.9496,0,-3.9144,-3.9178,-3.9202,-3.9223,-3.9236,-3.9269,-3.9289,-3.9287,-3.9308,-3.9333,-3.9359,-3.9391,-3.9417,-3.9471,-3.9477,-3.9506,-3.9499,-3.9541,-3.9503,-3.9505,-3.95,-3.9498,-3.9501,-3.9548,-3.9549,-3.955,-3.9551,0,-3.924,-3.9241,-3.9272,-3.9303,-3.9328,-3.9352,-3.9374,-3.9391,-3.9391,-3.9415,-3.945,-3.947,-3.9509,-3.9541,-3.9568,-3.9578,-3.9564,-3.9563,-3.9573,-3.9576,-3.9575,-3.9576,-3.9451,-3.956,-3.9559,-3.9559,-3.9558,-3.9558,-3.931,-3.934,-3.9362,-3.9396,-3.9412,-3.9433,-3.9462,-3.9469,-3.9499,-3.9532,-3.9528,-3.9566,-3.9584,-3.962,-3.9632,-3.9661,-3.9646,-3.9661,-3.9665,-3.9668,-3.9672,-3.957,-3.9666,-3.9666,-3.9665,-3.9665,-3.9665,0,-3.9406,-3.9419,-3.9451,-3.9483,-3.951,-3.9496,-3.952,-3.9542,-3.9577,-3.9596,-3.9622,-3.9661,-3.9692,-3.9701,-3.9731,-3.9752,-3.9746,-3.976,-3.9758,-3.976,-3.9684,-3.9672,-3.9764,-3.9764,-3.9764,-3.9764,-3.9764,-3.9764,-3.9459,-3.9509,-3.9513,-3.957,-3.9582,-3.9621,-3.9636,-3.9654,-3.967,-3.9715,-3.9741,-3.9747,-3.9762,-3.9792,-3.9819,-3.9821,-3.9832,-3.9848,-3.9847,-3.9776,-3.9766,-3.9756,-3.9745,-3.985,-3.9851,-3.9921,-3.9922,-3.9922]}]]